Home > Weather > Barquisimeto > Past weeks

Flag for Venezuela Past Weather in Barquisimeto, Venezuela — Yesterday and Last 2 Weeks

Now
70 °F

Partly sunny.


Feels Like: 70 °F
Forecast: 72 / 84 °F
Wind: 14 mph from Southeast

Location: Barquisimeto Airport

Current Time: May 28, 2016 at 7:51:56 AM

Latest Report: May 28, 2016 at 7:00 AM


Visibility: N/A

Pressure: 29.98 "Hg (28.06 "Hg at 569m altitude)

Humidity: 88%

Dew Point: 66 °F

Location of BarquisimetoLocation

Past Weather in Barquisimeto — Graph

°F

Barquisimeto Temperature Yesterday

Maximum temperature yesterday: 84 °F (at 1:00 PM)
Minimum temperature yesterday: 70 °F (at 2:00 AM)
Average temperature yesterday: 76 °F

High & Low Weather Summary for the Past Weeks

 TemperatureHumidityPressure
High90 °F (May 17, 3:00 PM)94% (May 23, 9:00 PM)30.09 "Hg (May 23, 9:00 PM)
Low70 °F (May 25, 8:00 PM)41% (May 20, 3:00 PM)29.92 "Hg (May 22, 5:00 PM)
Average78 °F70%30.03 "Hg
* Reported May 13 7:00 AM — May 28 6:00 AM, Barquisimeto, Weather by CustomWeather, © 2016

Note: Actual official high and low records may vary slightly from our data, if they occured in-between our weather recording intervals... More about our weather records

Advertising

Barquisimeto Weather History for the Previous 24 Hours

Scroll right to see more
 ConditionsComfort  
Time TempWeatherWind HumidityBarometerVisibility
6:00 AM
Sat, May 28
70 °FPartly sunny.15 mph88%29.98 "HgN/A
5:00 AM70 °FPassing clouds.7 mph88%29.98 "HgN/A
2:00 AM72 °FPassing clouds.12 mph88%29.98 "HgN/A
11:00 PM
Fri, May 27
73 °FPassing clouds.7 mph83%30.01 "HgN/A
10:00 PM73 °FPassing clouds.7 mph83%30.01 "HgN/A
9:00 PM75 °FPassing clouds.9 mph78%30.01 "HgN/A
8:00 PM77 °FPassing clouds.9 mph74%29.98 "HgN/A
7:00 PM77 °FPartly cloudy.10 mph69%29.95 "HgN/A
6:00 PM79 °FBroken clouds.9 mph65%29.95 "HgN/A
5:00 PM82 °FBroken clouds.12 mph58%29.95 "HgN/A
4:00 PM81 °FPartly sunny.12 mph62%29.95 "HgN/A
3:00 PM77 °FPartly sunny.9 mph65%29.98 "HgN/A
2:00 PM82 °FPartly sunny.12 mph58%29.98 "HgN/A
1:00 PM84 °FPartly sunny.9 mph51%30.01 "HgN/A
12:00 PM81 °FPartly sunny.12 mph51%30.01 "HgN/A
11:00 AM77 °FPartly sunny.9 mph69%30.04 "HgN/A
10:00 AM73 °FFog.6 mph78%30.04 "HgN/A
9:00 AM73 °FFog.9 mph83%30.01 "Hg5 mi
8:00 AM72 °FPartly sunny.2 mph78%30.01 "HgN/A
7:00 AM70 °FPartly sunny.3 mph83%29.98 "HgN/A
Weather by CustomWeather, © 2016

See weather overviewHow to use our weather pages